When you browse on this site, cookies collect data to enhance your experience and personalize the content and advertising you see.
Visit our Privacy Policy to learn more. By continuing to use the site, you agree to this use of cookies and data.
  • en Suisse
  • Liste des pays
  • À 7 jours
  • Température de l'eau
  • Carte météo
  • Widgets météo
  • user-avatar
    Se connecter

    Météo par heure à Spring Garden

    Ce jour, 24 Août, Samedi

    Heure Température Précipitation Vent Pression Humidité
    00:00 +15°C° 0 mm 0 m/s 645 mmHg 69%
    01:00 +15°C° 0 mm 0 m/s 645 mmHg 71%
    02:00 +15°C° 0 mm 0 m/s 645 mmHg 71%
    03:00 +14°C° 0 mm 0 m/s 645 mmHg 71%
    04:00 +14°C° 0 mm 0 m/s 645 mmHg 71%
    05:00 +16°C° 0 mm 0 m/s 646 mmHg 64%
    06:00 +18°C° 0 mm 0 m/s 647 mmHg 57%
    07:00 +20°C° 0 mm 0 m/s 648 mmHg 50%
    08:00 +25°C° 0 mm 1 m/s 649 mmHg 41%
    09:00 +28°C° 0 mm 2 m/s 650 mmHg 33%
    10:00 +31°C° 0 mm 3 m/s 651 mmHg 25%
    11:00 +33°C° 0 mm 4 m/s 650 mmHg 24%
    12:00 +34°C° 0 mm 4 m/s 650 mmHg 23%
    13:00 +34°C° 0 mm 5 m/s 650 mmHg 22%
    14:00 +34°C° 0 mm 5 m/s 650 mmHg 21%
    15:00 +33°C° 0 mm 4 m/s 649 mmHg 21%
    16:00 +33°C° 0 mm 4 m/s 649 mmHg 21%
    17:00 +28°C° 0 mm 3 m/s 648 mmHg 28%
    18:00 +25°C° 0 mm 2 m/s 647 mmHg 35%
    19:00 +22°C° 0 mm 1 m/s 647 mmHg 43%
    20:00 +20°C° 0 mm 1 m/s 647 mmHg 48%
    21:00 +19°C° 0 mm 1 m/s 647 mmHg 54%
    22:00 +18°C° 0 mm 1 m/s 647 mmHg 60%
    23:00 +16°C° 0 mm 1 m/s 647 mmHg 63%

    Demain, 25 Août, Dimanche

    Heure Température Précipitation Vent Pression Humidité
    00:00 +15°C° 0 mm 1 m/s 647 mmHg 66%
    01:00 +15°C° 0 mm 1 m/s 647 mmHg 70%
    02:00 +15°C° 0 mm 1 m/s 647 mmHg 71%
    03:00 +15°C° 0 mm 1 m/s 647 mmHg 72%
    04:00 +14°C° 0 mm 1 m/s 647 mmHg 72%
    05:00 +16°C° 0 mm 1 m/s 648 mmHg 65%
    06:00 +17°C° 0 mm 0 m/s 648 mmHg 58%
    07:00 +19°C° 0 mm 0 m/s 649 mmHg 51%
    08:00 +24°C° 0 mm 1 m/s 650 mmHg 42%
    09:00 +28°C° 0 mm 2 m/s 651 mmHg 32%
    10:00 +31°C° 0 mm 3 m/s 651 mmHg 23%
    11:00 +32°C° 0 mm 4 m/s 651 mmHg 20%
    12:00 +33°C° 0 mm 4 m/s 651 mmHg 18%
    13:00 +34°C° 0 mm 5 m/s 651 mmHg 16%
    14:00 +33°C° 0 mm 5 m/s 650 mmHg 16%
    15:00 +33°C° 0 mm 5 m/s 650 mmHg 16%
    16:00 +32°C° 0 mm 5 m/s 649 mmHg 16%
    17:00 +28°C° 0 mm 3 m/s 648 mmHg 21%
    18:00 +24°C° 0 mm 2 m/s 648 mmHg 27%
    19:00 +21°C° 0 mm 1 m/s 647 mmHg 32%
    20:00 +19°C° 0 mm 1 m/s 647 mmHg 35%
    21:00 +18°C° 0 mm 1 m/s 647 mmHg 39%
    22:00 +15°C° 0 mm 0 m/s 647 mmHg 42%
    23:00 +15°C° 0 mm 1 m/s 647 mmHg 43%

    Après-demain, 26 Août, Lundi

    Heure Température Précipitation Vent Pression Humidité
    00:00 +15°C° 0 mm 1 m/s 647 mmHg 44%
    01:00 +14°C° 0 mm 1 m/s 646 mmHg 46%
    02:00 +14°C° 0 mm 1 m/s 646 mmHg 46%
    03:00 +14°C° 0 mm 1 m/s 646 mmHg 45%
    04:00 +14°C° 0 mm 1 m/s 646 mmHg 45%
    05:00 +16°C° 0 mm 1 m/s 647 mmHg 41%
    06:00 +19°C° 0 mm 1 m/s 648 mmHg 37%
    07:00 +21°C° 0 mm 1 m/s 648 mmHg 33%
    08:00 +25°C° 0 mm 1 m/s 649 mmHg 26%
    09:00 +30°C° 0 mm 1 m/s 651 mmHg 20%
    10:00 +34°C° 0 mm 1 m/s 652 mmHg 13%
    11:00 +35°C° 0 mm 1 m/s 651 mmHg 12%
    12:00 +36°C° 0 mm 2 m/s 651 mmHg 12%
    13:00 +37°C° 0 mm 3 m/s 650 mmHg 11%
    14:00 +36°C° 0 mm 3 m/s 650 mmHg 12%
    15:00 +36°C° 0 mm 3 m/s 649 mmHg 12%
    16:00 +35°C° 0 mm 4 m/s 648 mmHg 13%
    17:00 +30°C° 0 mm 3 m/s 647 mmHg 18%
    18:00 +26°C° 0 mm 2 m/s 646 mmHg 24%
    19:00 +22°C° 0 mm 1 m/s 645 mmHg 29%
    20:00 +21°C° 0 mm 1 m/s 645 mmHg 32%
    21:00 +19°C° 0 mm 1 m/s 645 mmHg 34%
    22:00 +18°C° 0 mm 1 m/s 645 mmHg 36%
    23:00 +16°C° 0 mm 1 m/s 645 mmHg 37%

    27 Août, Mardi

    Heure Température Précipitation Vent Pression Humidité
    00:00 +16°C° 0 mm 1 m/s 645 mmHg 38%
    01:00 +16°C° 0 mm 1 m/s 644 mmHg 39%
    02:00 +15°C° 0 mm 1 m/s 645 mmHg 39%
    03:00 +15°C° 0 mm 1 m/s 645 mmHg 39%
    04:00 +15°C° 0 mm 1 m/s 645 mmHg 40%
    05:00 +18°C° 0 mm 1 m/s 645 mmHg 37%
    06:00 +20°C° 0 mm 1 m/s 646 mmHg 34%
    07:00 +22°C° 0 mm 1 m/s 647 mmHg 31%
    08:00 +26°C° 0 mm 1 m/s 648 mmHg 25%
    09:00 +29°C° 0 mm 0 m/s 649 mmHg 19%
    10:00 +34°C° 0 mm 0 m/s 650 mmHg 13%
    11:00 +37°C° 0 mm 1 m/s 650 mmHg 12%
    12:00 +39°C° 0 mm 2 m/s 650 mmHg 11%
    13:00 +39°C° 0 mm 2 m/s 650 mmHg 10%
    14:00 +39°C° 0 mm 3 m/s 649 mmHg 11%
    15:00 +38°C° 0 mm 3 m/s 649 mmHg 12%
    16:00 +37°C° 0 mm 4 m/s 648 mmHg 13%
    17:00 +33°C° 0 mm 3 m/s 647 mmHg 18%
    18:00 +28°C° 0 mm 2 m/s 646 mmHg 23%
    19:00 +24°C° 0 mm 1 m/s 645 mmHg 28%
    20:00 +22°C° 0 mm 1 m/s 645 mmHg 31%
    21:00 +21°C° 0 mm 1 m/s 645 mmHg 33%
    22:00 +18°C° 0 mm 0 m/s 645 mmHg 35%
    23:00 +17°C° 0 mm 0 m/s 645 mmHg 36%

    28 Août, Mercredi

    Heure Température Précipitation Vent Pression Humidité
    00:00 +17°C° 0 mm 0 m/s 645 mmHg 37%
    01:00 +16°C° 0 mm 0 m/s 645 mmHg 38%
    02:00 +16°C° 0 mm 0 m/s 645 mmHg 39%
    03:00 +16°C° 0 mm 0 m/s 645 mmHg 40%
    04:00 +15°C° 0 mm 0 m/s 645 mmHg 40%
    05:00 +17°C° 0 mm 0 m/s 646 mmHg 37%
    06:00 +19°C° 0 mm 0 m/s 647 mmHg 34%
    07:00 +21°C° 0 mm 0 m/s 648 mmHg 30%
    08:00 +28°C° 0 mm 1 m/s 649 mmHg 25%
    09:00 +32°C° 0 mm 1 m/s 650 mmHg 19%
    10:00 +36°C° 0 mm 1 m/s 651 mmHg 14%
    11:00 +37°C° 0 mm 2 m/s 651 mmHg 13%
    12:00 +38°C° 0 mm 3 m/s 650 mmHg 13%
    13:00 +38°C° 0 mm 4 m/s 650 mmHg 12%
    14:00 +37°C° 0 mm 4 m/s 650 mmHg 14%
    15:00 +36°C° 0 mm 4 m/s 649 mmHg 15%
    16:00 +35°C° 0 mm 5 m/s 648 mmHg 16%
    17:00 +32°C° 0 mm 4 m/s 648 mmHg 22%
    18:00 +27°C° 0 mm 3 m/s 647 mmHg 28%
    19:00 +24°C° 0 mm 1 m/s 646 mmHg 34%
    20:00 +22°C° 0 mm 1 m/s 646 mmHg 38%
    21:00 +21°C° 0 mm 1 m/s 646 mmHg 42%
    22:00 +20°C° 0 mm 1 m/s 646 mmHg 45%
    23:00 +19°C° 0 mm 1 m/s 646 mmHg 47%

    29 Août, Jeudi

    Heure Température Précipitation Vent Pression Humidité
    00:00 +19°C° 0 mm 1 m/s 646 mmHg 50%
    01:00 +18°C° 0 mm 1 m/s 646 mmHg 52%
    02:00 +18°C° 0 mm 1 m/s 646 mmHg 53%
    03:00 +18°C° 0 mm 1 m/s 646 mmHg 54%
    04:00 +16°C° 0 mm 1 m/s 646 mmHg 56%
    05:00 +19°C° 0 mm 1 m/s 647 mmHg 51%
    06:00 +19°C° 0 mm 0 m/s 648 mmHg 46%
    07:00 +21°C° 0 mm 0 m/s 649 mmHg 41%
    08:00 +26°C° 0 mm 1 m/s 650 mmHg 35%
    09:00 +29°C° 0 mm 2 m/s 651 mmHg 29%
    10:00 +33°C° 0 mm 3 m/s 651 mmHg 22%
    11:00 +33°C° 0 mm 4 m/s 651 mmHg 21%
    12:00 +34°C° 0 mm 5 m/s 651 mmHg 20%
    13:00 +34°C° 0 mm 6 m/s 651 mmHg 19%
    14:00 +33°C° 0 mm 5 m/s 650 mmHg 21%
    15:00 +33°C° 0 mm 5 m/s 650 mmHg 22%
    16:00 +32°C° 0 mm 5 m/s 649 mmHg 23%
    17:00 +28°C° 0 mm 4 m/s 649 mmHg 32%
    18:00 +24°C° 0 mm 3 m/s 648 mmHg 40%
    19:00 +21°C° 0 mm 1 m/s 647 mmHg 48%
    20:00 +20°C° 0 mm 1 m/s 647 mmHg 54%
    21:00 +18°C° 0 mm 1 m/s 647 mmHg 60%
    22:00 +16°C° 0 mm 1 m/s 647 mmHg 66%
    23:00 +15°C° 0 mm 1 m/s 647 mmHg 67%
    Voir plus